Regional Weather Roundup
Issued by NWS Grand Forks, ND

Home | Current Version | Previous Version | Graphics & Text | Print | Product List | Glossary On
Versions: 1 2 3 4 5 6 7 8 9 10 11 12 13 14 15 16 17 18 19 20 21 22 23 24 25 26 27 28 29 30 31 32 33 34 35 36 37 38 39 40 41 42 43 44 45 46 47 48 49 50
000
ASUS43 KFGF 050531
RWRFGF
PRAIRIE TO PINES  WEATHER ROUNDUP
NATIONAL WEATHER SERVICE EASTERN NORTH DAKOTA/GRAND FORKS ND
1200 AM CDT WED AUG 05 2015

 **SATELLITE DATA USED TO AUGMENT SKY COVER AT AUTOMATED STATIONS**
 *****  WEATHER ACROSS EASTERN NORTH DAKOTA  *****

CITY           SKY/WX    TMP DP  RH WIND       PRES   REMARKS
GRAND FORKS    PTCLDY    64  55  72 NE7       30.03S
GRAND FRKS AFB PTCLDY    63  55  75 E7        30.04S
GRAND FRKS NWS   N/A     61 N/A N/A NE6         N/A
DEVILS LAKE    CLEAR     63  52  67 E9        30.03S
FARGO          CLEAR     62  56  80 E3        30.02S
WAHPETON ARPT  NOT AVBL
$$

 ***** WEATHER ACROSS CENTRAL AND WESTERN NORTH DAKOTA  *****

CITY           SKY/WX    TMP DP  RH WIND       PRES   REMARKS
BISMARCK       PTCLDY    69  61  75 E7        29.98R
MINOT          MOCLDY    64  52  64 E9        29.96F
JAMESTOWN      CLEAR     62  55  77 E8        30.02S
MINOT AFB      MOCLDY    62  55  78 SE10      29.96S
GARRISON         N/A     67  57  70 SE10      29.96S
WILLISTON      CLOUDY    76  56  49 SE8       29.91R
DICKINSON      CLOUDY    69  60  73 SW9       29.98R
HETTINGER      TSTM      64  62  93 NW16G25   30.02F FOG
$$

 *****  OTHER AIRPORT OBSERVATIONS IN OUR AREA  *****

CITY           SKY/WX    TMP DP  RH WIND       PRES   REMARKS
WALHALLA       FAIR      54  54 100 MISG      30.07S
GRAFTON AIRPOR FAIR      59  55  88 NE6       30.06R
VALLEY CITY AR FAIR      63  55  77 E6        30.04R
CANDO          FAIR      59  54  82 E10       30.04F
CAVALIER APRT  FAIR      57  54  88 CALM      30.06S
GWINNER          N/A     59  55  88 SE3       30.04R
SHEYENNE NWR     N/A     60  53  78 E3        29.95
ROLLA          FAIR      55  54  94 SE5       30.06S
 ***** THE ABOVE OBSERVATIONS ARE NON NWS ARE NOT QUALITY
       CONTROLLED AND MAY MIS-REPORT RAIN FOR SNOW...
$$

  *****  WEATHER ACROSS NORTHERN MINNESOTA  *****

CITY           SKY/WX    TMP DP  RH WIND       PRES   REMARKS
FLAG ISLAND    CLEAR     64  55  72 CALM      30.06R
WARROAD        CLEAR     54  52  94 CALM      30.09R
ROSEAU         CLEAR     54  48  82 CALM      30.08R
HALLOCK        MOCLDY    57  54  88 NE7       30.06S
THF RVR FALLS  CLEAR     57  50  77 E5        30.07S
BAUDETTE       CLEAR     52  49  89 CALM      30.08R
WASKISH        CLEAR     50  48  93 CALM      30.09S
CROOKSTON      PTCLDY    61  54  77 E9        30.05F
STEPHEN NDAWN    N/A     55  54  94 E3          N/A
GREENBUSH NDAW   N/A     55  54  94 NE2         N/A
$$
  *****  WEATHER ACROSS CENTRAL AND WEST MINNESOTA  *****

CITY           SKY/WX    TMP DP  RH WIND       PRES   REMARKS
FOSSTON        CLEAR     54  45  71 CALM      30.07S
BEMIDJI        CLEAR     54  50  88 E5        30.08R
PARK RAPIDS    CLEAR     62  52  69 E3        30.06S
ELBOW LAKE     FAIR      65  59  79 E5        30.04S
WADENA         CLEAR     57  52  82 E3        30.05S
DETROIT LAKES  CLEAR     61  55  82 CALM      30.06S
MOORHEAD       CLEAR     61  54  77 CALM      30.03S
FERGUS FALLS   CLEAR     63  55  77 NE3       30.04R
MORRIS MN      CLEAR     57  54  88 CALM      30.03R
STAPLES        CLEAR     61  54  77 CALM      30.05F
$$
  *****  WEATHER ELSEWHERE ACROSS MINNESOTA  *****

CITY           SKY/WX    TMP DP  RH WIND       PRES   REMARKS
DULUTH         PTCLDY    57  48  72 E6        30.07S
INTRNTL FALLS  CLEAR     45  44  97 CALM      30.09R
ELY            CLOUDY    54  52  94 CALM      30.09R
CLOQUET        MOCLDY    57  48  72 NE3       30.08S
WHEATON        CLEAR     57  55  94 CALM      30.05R
BRAINERD       CLEAR     55  52  89 CALM      30.06R
HIBBING        CLEAR     46  44  93 CALM      30.08S
ALEXANDRIA     CLEAR     61  55  81 E5        30.06S
SAINT CLOUD    CLEAR     58  56  93 CALM      30.03S
MINNEAPOLIS    PTCLDY    72  53  51 SW5       30.02R
$$

  *****  WEATHER ACROSS SOUTH DAKOTA  *****

CITY           SKY/WX    TMP DP  RH WIND       PRES   REMARKS
SIOUX FALLS    CLOUDY    67  60  78 E7        30.02S
BROOKINGS      MOCLDY    64  57  77 E6        30.05S
WATERTOWN      MOCLDY    66  54  65 SE5       30.04R
HURON          MOCLDY     1  32 100 SE7       30.00R WCI -12
SISSETON         N/A     58  55  90 CALM      30.03R
ABERDEEN       PTCLDY    63  56  78 E8        30.01S
MITCHELL       MOCLDY    67  64  90 SE6       30.01R
PIERRE         PTCLDY    70  62  76 SE9       29.98R
MOBRIDGE       MOCLDY    70  62  76 SE9       29.97R
RAPID CITY     CLOUDY    67  60  78 SE6       29.99R
$$

  *****  SOME WEATHER IN NEARBY STATES *****

CITY           SKY/WX    TMP DP  RH WIND       PRES   REMARKS
GLASGOW MT     LGT RAIN  67  63  87 E5        29.91F
GREAT FALLS MT PTCLDY    66  52  60 SE8       29.96R
CHEYENNE WY    CLEAR     59  54  83 S10       30.21R
SCOTTSBLUFF NE PTCLDY    64  63  96 CALM      30.08R FOG
OMAHA NE       CLOUDY    70  67  90 E6        29.96S
DES MOINES IA  LGT RAIN  72  63  73 SE7       30.02R
DAVENPORT IA   CLEAR     64  61  90 CALM      30.04F
CHICAGO IL     PTCLDY    67  58  72 CALM      30.04R
EAU CLAIRE WI  CLEAR     60  56  86 N5        30.03R
LA CROSSE WI   CLEAR     65  59  81 SE5       30.02S
$$

  *****  SOME NATIONAL WEATHER *****

CITY           SKY/WX    TMP DP  RH WIND       PRES   REMARKS
LA GUARDIA NY  PTCLDY    77  59  53 SE5       29.91R
RALEIGH NC     MOCLDY    77  72  84 CALM      30.00R
ATLANTA GA     PTCLDY    79  66  64 S7        30.05R
NEW ORLEANS LA PTCLDY    80  72  76 SW5       30.00R
OKLAHOMA CITY  PTCLDY    76  72  87 SE9       29.94F
ALBUQUERQUE NM CLEAR     83  41  22 N5        30.16R
SALT LAKE CITY PTCLDY    79  48  33 S9        29.95F
LOS ANGELES CA CLEAR     71  64  78 W8        29.91R
BOISE ID       MOCLDY    80  48  32 S7        29.86S
SEATTLE WA     PTCLDY    63  52  67 SW3       30.00R
$$

*** WEATHER ACROSS MANITOBA...SASKATCHEWAN AND ONTARIO ***
                ***ONTARIO***

CITY           SKY/WX    TMP DP  RH WIND       PRES   REMARKS
GERALDTON      MOCLDY    54  50  87 W3        30.00S
THUNDER BAY    PTCLDY    54  52  94 W5        30.04S
SIOUX LOOKOUT  PTCLDY    50  50 100 NW5       30.08R
TORONTO        MOCLDY    63  54  72 NW14      29.95R
BIG TROUT LK   CLOUDY    54  48  82 N8        30.04R
PICKLE LAKE    NOT AVBL
DRYDEN         CLEAR     55  50  82 SW3       30.08S
KENORA         PTCLDY    57  52  82 S5        30.08R
$$
                *** MANITOBA***

CITY           SKY/WX    TMP DP  RH WIND       PRES   REMARKS
BRANDON        MOCLDY    55  52  88 E7        30.05S
DAUPHIN        PTCLDY    57  55  94 SE6       30.03S
ISLAND LAKE    MOCLDY    57  54  88 E5        30.08R
PILOT MOUND      N/A     55  52  88 E8          N/A
THE PAS        MOCLDY    64  55  72 E6        30.02S
THOMPSON       MOCLDY    54  50  87 NE8       30.10R
WINNIPEG       PTCLDY    54  50  87 SE2       30.07R
LYNN LAKE      CLOUDY    57  54  88 E2        30.08F
CHURCHILL      FOG       46  46 100 N6        30.13R VSB 1/4
GILLAM         CLEAR     48  46  93 E5        30.11
$$
                ***SASKATCHEWAN***

CITY           SKY/WX    TMP DP  RH WIND       PRES   REMARKS
ESTEVAN        MOCLDY    66  54  63 SE16G23   29.93F
KINDERSLEY     CLOUDY    63  57  82 W8        29.86R
LLOYDMINSTER   CLOUDY    61  57  88 NE8       29.85S
PRINCE ALBERT  LGT RAIN  59  57  94 E12       29.94F
REGINA         LGT RAIN  66  61  82 S13G18    29.94S
YORKTON        CLOUDY    63  55  77 SE9       29.98S HAZE
N. BATTLEFORD  CLOUDY    64  55  72 E18G25    29.82R
LA RONGE       CLOUDY    57  57 100 CALM      30.03S
SASKATOON      MOCLDY    66  59  77 SE17G25   29.81S
SWIFT CURRENT  MOCLDY    66  59  77 S8        29.88R
$$
NOTE: THESE ARE AUTOMATED STATIONS WITH LIMITED QUALITY CONTROL
      "FAIR" INDICATES FEW OR NO CLOUDS BELOW 12,000 FEET WITH NO
      SIGNIFICANT WEATHER AND/OR OBSTRUCTIONS TO VISIBILITY.
      SKY/WX - SKY CONDITION AND SIGNIFICANT WEATHER.
      TMP - AIR TEMPERATURE.    DP   - DEWPOINT TEMPERATURE.
      RH  - RELATIVE HUMIDITY.  PRES - PRESSURE.
      HX  - HEAT INDEX.         WCI  - WIND CHILL INDEX.
$



USA.gov is the U.S. government's official web portal to all federal, state and local government web resources and services.